When you browse on this site, cookies collect data to enhance your experience and personalize the content and advertising you see.
Visit our Privacy Policy to learn more. By continuing to use the site, you agree to this use of cookies and data.

Hourly Weather Mingachevir

Today, 11 July, Saturday

Time Temperature Precipitation Wind Pressure Humidity
00:00 +28°C° 0 mm 5 mps 752 mmHg 55%
01:00 +28°C° 0.2 mm 4 mps 752 mmHg 58%
02:00 +27°C° 0.2 mm 3 mps 752 mmHg 60%
03:00 +27°C° 0 mm 2 mps 752 mmHg 63%
04:00 +26°C° 0.3 mm 2 mps 752 mmHg 66%
05:00 +26°C° 0.3 mm 2 mps 753 mmHg 68%
06:00 +26°C° 0.3 mm 3 mps 753 mmHg 71%
07:00 +26°C° 0.2 mm 3 mps 753 mmHg 68%
08:00 +27°C° 0.2 mm 3 mps 752 mmHg 65%
09:00 +28°C° 0.2 mm 4 mps 752 mmHg 63%
10:00 +29°C° 0 mm 4 mps 752 mmHg 56%
11:00 +32°C° 0 mm 4 mps 752 mmHg 50%
12:00 +33°C° 0 mm 4 mps 752 mmHg 44%
13:00 +34°C° 0 mm 4 mps 752 mmHg 41%
14:00 +35°C° 0 mm 4 mps 751 mmHg 39%
15:00 +35°C° 0 mm 4 mps 751 mmHg 36%
16:00 +35°C° 0 mm 4 mps 750 mmHg 37%
17:00 +35°C° 0 mm 4 mps 750 mmHg 37%
18:00 +35°C° 0 mm 3 mps 750 mmHg 37%
19:00 +33°C° 0 mm 3 mps 750 mmHg 40%
20:00 +31°C° 0 mm 2 mps 751 mmHg 43%
21:00 +30°C° 0 mm 2 mps 751 mmHg 46%
22:00 +29°C° 0 mm 2 mps 751 mmHg 48%
23:00 +29°C° 0 mm 2 mps 750 mmHg 50%

Tomorrow, 12 July, Sunday

Time Temperature Precipitation Wind Pressure Humidity
00:00 +28°C° 0 mm 2 mps 750 mmHg 53%
01:00 +27°C° 0 mm 2 mps 750 mmHg 55%
02:00 +27°C° 0 mm 2 mps 750 mmHg 57%
03:00 +26°C° 0 mm 2 mps 750 mmHg 59%
04:00 +26°C° 0 mm 1 mps 749 mmHg 58%
05:00 +27°C° 0 mm 1 mps 749 mmHg 56%
06:00 +27°C° 0 mm 1 mps 749 mmHg 55%
07:00 +29°C° 0 mm 1 mps 749 mmHg 49%
08:00 +31°C° 0 mm 1 mps 749 mmHg 43%
09:00 +32°C° 0 mm 2 mps 749 mmHg 37%
10:00 +35°C° 0 mm 3 mps 749 mmHg 33%
11:00 +36°C° 0 mm 4 mps 748 mmHg 30%
12:00 +37°C° 0 mm 5 mps 748 mmHg 27%
13:00 +38°C° 0 mm 6 mps 747 mmHg 27%
14:00 +38°C° 0 mm 7 mps 747 mmHg 27%
15:00 +38°C° 0 mm 7 mps 747 mmHg 27%
16:00 +36°C° 0 mm 7 mps 746 mmHg 30%
17:00 +35°C° 0 mm 6 mps 746 mmHg 33%
18:00 +34°C° 0 mm 6 mps 746 mmHg 36%
19:00 +33°C° 0 mm 5 mps 746 mmHg 40%
20:00 +32°C° 0 mm 4 mps 746 mmHg 43%
21:00 +29°C° 0 mm 4 mps 746 mmHg 47%
22:00 +29°C° 0 mm 3 mps 746 mmHg 49%
23:00 +28°C° 0 mm 3 mps 746 mmHg 50%

Day after tomorrow, 13 July, Monday

Time Temperature Precipitation Wind Pressure Humidity
00:00 +27°C° 0 mm 2 mps 746 mmHg 52%
01:00 +27°C° 0 mm 2 mps 746 mmHg 54%
02:00 +26°C° 0 mm 2 mps 746 mmHg 56%
03:00 +26°C° 0 mm 1 mps 745 mmHg 57%
04:00 +26°C° 0 mm 1 mps 745 mmHg 57%
05:00 +27°C° 0 mm 1 mps 745 mmHg 56%
06:00 +27°C° 0 mm 1 mps 745 mmHg 55%
07:00 +29°C° 0 mm 1 mps 745 mmHg 50%
08:00 +30°C° 0 mm 1 mps 745 mmHg 46%
09:00 +32°C° 0 mm 2 mps 744 mmHg 42%
10:00 +34°C° 0 mm 2 mps 744 mmHg 38%
11:00 +35°C° 0 mm 2 mps 744 mmHg 35%
12:00 +37°C° 0 mm 2 mps 744 mmHg 31%
13:00 +37°C° 0 mm 2 mps 743 mmHg 31%
14:00 +38°C° 0 mm 2 mps 743 mmHg 30%
15:00 +38°C° 0 mm 2 mps 743 mmHg 29%
16:00 +37°C° 0 mm 2 mps 743 mmHg 32%
17:00 +36°C° 0 mm 2 mps 743 mmHg 34%
18:00 +36°C° 0 mm 3 mps 743 mmHg 36%
19:00 +32°C° 0.9 mm 2 mps 743 mmHg 45%
20:00 +30°C° 0.9 mm 2 mps 744 mmHg 54%
21:00 +28°C° 0.9 mm 2 mps 744 mmHg 62%
22:00 +28°C° 0.4 mm 2 mps 744 mmHg 66%
23:00 +28°C° 0.4 mm 1 mps 744 mmHg 69%

14 July, Tuesday

Time Temperature Precipitation Wind Pressure Humidity
00:00 +28°C° 0.4 mm 1 mps 744 mmHg 72%
01:00 +28°C° 0 mm 1 mps 744 mmHg 71%
02:00 +27°C° 0 mm 1 mps 744 mmHg 71%
03:00 +27°C° 0 mm 2 mps 744 mmHg 70%
04:00 +27°C° 0.4 mm 2 mps 745 mmHg 69%
05:00 +27°C° 0.4 mm 3 mps 745 mmHg 68%
06:00 +27°C° 0.4 mm 4 mps 745 mmHg 67%
07:00 +28°C° 0.4 mm 4 mps 745 mmHg 63%
08:00 +29°C° 0.4 mm 4 mps 746 mmHg 60%
09:00 +30°C° 0.4 mm 5 mps 746 mmHg 56%
10:00 +32°C° 0 mm 5 mps 746 mmHg 52%
11:00 +34°C° 0 mm 5 mps 746 mmHg 47%
12:00 +35°C° 0 mm 5 mps 745 mmHg 43%
13:00 +36°C° 0 mm 5 mps 745 mmHg 40%
14:00 +36°C° 0 mm 5 mps 745 mmHg 38%
15:00 +37°C° 0 mm 5 mps 745 mmHg 36%
16:00 +36°C° 0 mm 6 mps 745 mmHg 38%
17:00 +35°C° 0 mm 6 mps 746 mmHg 39%
18:00 +34°C° 0 mm 6 mps 746 mmHg 40%
19:00 +33°C° 0 mm 7 mps 746 mmHg 43%
20:00 +32°C° 0 mm 7 mps 747 mmHg 45%
21:00 +30°C° 0 mm 7 mps 748 mmHg 47%
22:00 +29°C° 0.5 mm 6 mps 748 mmHg 51%
23:00 +28°C° 0.5 mm 6 mps 748 mmHg 55%

15 July, Wednesday

Time Temperature Precipitation Wind Pressure Humidity
00:00 +27°C° 0.5 mm 5 mps 748 mmHg 59%
01:00 +27°C° 0.2 mm 5 mps 749 mmHg 61%
02:00 +26°C° 0.2 mm 5 mps 749 mmHg 62%
03:00 +26°C° 0.2 mm 5 mps 749 mmHg 63%
04:00 +26°C° 0 mm 4 mps 749 mmHg 63%
05:00 +26°C° 0 mm 4 mps 749 mmHg 62%
06:00 +27°C° 0 mm 4 mps 750 mmHg 62%
07:00 +28°C° 0 mm 4 mps 750 mmHg 56%
08:00 +30°C° 0 mm 4 mps 750 mmHg 51%
09:00 +32°C° 0 mm 4 mps 750 mmHg 45%
10:00 +33°C° 0 mm 3 mps 749 mmHg 42%
11:00 +35°C° 0 mm 2 mps 749 mmHg 39%
12:00 +35°C° 0 mm 1 mps 749 mmHg 35%
13:00 +36°C° 0 mm 2 mps 749 mmHg 34%
14:00 +37°C° 0 mm 2 mps 749 mmHg 33%
15:00 +38°C° 0 mm 3 mps 748 mmHg 32%
16:00 +37°C° 0 mm 3 mps 748 mmHg 34%
17:00 +37°C° 0 mm 4 mps 748 mmHg 36%
18:00 +36°C° 0 mm 4 mps 748 mmHg 38%
19:00 +35°C° 0.1 mm 5 mps 748 mmHg 44%
20:00 +33°C° 0.1 mm 6 mps 749 mmHg 51%
21:00 +30°C° 0.1 mm 6 mps 749 mmHg 57%
22:00 +29°C° 0.2 mm 6 mps 749 mmHg 59%
23:00 +29°C° 0.2 mm 5 mps 749 mmHg 62%

16 July, Thursday

Time Temperature Precipitation Wind Pressure Humidity
00:00 +28°C° 0.2 mm 4 mps 749 mmHg 64%
01:00 +27°C° 0.7 mm 3 mps 749 mmHg 67%
02:00 +27°C° 0.7 mm 2 mps 749 mmHg 70%
03:00 +26°C° 0.7 mm 2 mps 749 mmHg 73%
04:00 +26°C° 0.1 mm 1 mps 749 mmHg 73%
05:00 +26°C° 0.1 mm 1 mps 749 mmHg 73%
06:00 +26°C° 0.1 mm 1 mps 749 mmHg 73%
07:00 +28°C° 0.1 mm 2 mps 749 mmHg 65%
08:00 +30°C° 0.1 mm 2 mps 749 mmHg 58%
09:00 +31°C° 0.1 mm 3 mps 749 mmHg 50%
10:00 +33°C° 0 mm 3 mps 748 mmHg 46%
11:00 +35°C° 0 mm 4 mps 748 mmHg 42%
12:00 +36°C° 0 mm 4 mps 747 mmHg 38%
13:00 +36°C° 0 mm 4 mps 747 mmHg 37%
14:00 +36°C° 0 mm 4 mps 747 mmHg 36%
15:00 +37°C° 0 mm 5 mps 746 mmHg 36%
16:00 +36°C° 0 mm 4 mps 746 mmHg 37%
17:00 +36°C° 0 mm 4 mps 746 mmHg 38%
18:00 +36°C° 0 mm 4 mps 746 mmHg 39%
19:00 +34°C° 0.2 mm 4 mps 746 mmHg 43%
20:00 +33°C° 0.2 mm 4 mps 746 mmHg 48%
21:00 +30°C° 0.2 mm 5 mps 747 mmHg 52%
22:00 +29°C° 0.4 mm 4 mps 746 mmHg 56%
23:00 +28°C° 0.4 mm 4 mps 746 mmHg 60%
Show more